| time (UTC) | temp C | wind direction | speed KPH | gust KPH | rain 1hr cm | rain 24hr cm | rain mn cm | humidity % | barometer mb |
| 20260904040529 | 16 | 254 | 4.8 | 14.5 | 0.00 | 0.00 | 0.00 | 73 | 1014.4 |
| 20260904040027 | 16 | 265 | 3.2 | 11.3 | 0.00 | 0.00 | 0.00 | 73 | 1014.4 |
| 20260904035525 | 16 | 268 | 3.2 | 9.7 | 0.00 | 0.00 | 0.00 | 73 | 1014.4 |
| 20260904035023 | 16 | 260 | 3.2 | 9.7 | 0.00 | 0.00 | 0.00 | 73 | 1014.5 |
| 20260904034521 | 16 | 269 | 3.2 | 11.3 | 0.00 | 0.00 | 0.00 | 72 | 1014.5 |
| 20260904034019 | 16 | 248 | 4.8 | 9.7 | 0.00 | 0.00 | 0.00 | 72 | 1014.6 |
| 20260904033517 | 16 | 254 | 3.2 | 6.4 | 0.00 | 0.00 | 0.00 | 72 | 1014.5 |
| 20260904033036 | 16 | 249 | 4.8 | 11.3 | 0.00 | 0.00 | 0.00 | 72 | 1014.5 |
| 20260904032534 | 16 | 246 | 3.2 | 9.7 | 0.00 | 0.00 | 0.00 | 72 | 1014.5 |
| 20260904032032 | 16 | 269 | 3.2 | 6.4 | 0.00 | 0.00 | 0.00 | 72 | 1014.5 |
| 20260904031530 | 16 | 258 | 4.8 | 14.5 | 0.00 | 0.00 | 0.00 | 72 | 1014.7 |
| 20260904031028 | 16 | 263 | 6.4 | 11.3 | 0.00 | 0.00 | 0.00 | 72 | 1014.9 |
| 20260904030526 | 16 | 255 | 4.8 | 6.4 | 0.00 | 0.00 | 0.00 | 72 | 1014.7 |
| 20260904030025 | 16 | 265 | 3.2 | 11.3 | 0.00 | 0.00 | 0.00 | 72 | 1014.7 |
| 20260904025522 | 16 | 269 | 3.2 | 6.4 | 0.00 | 0.00 | 0.00 | 71 | 1014.6 |
| 20260904025020 | 16 | 249 | 3.2 | 6.4 | 0.00 | 0.00 | 0.00 | 71 | 1014.5 |
| 20260904024519 | 16 | 256 | 3.2 | 11.3 | 0.00 | 0.00 | 0.00 | 71 | 1014.6 |
| 20260904024048 | 16 | 258 | 3.2 | 9.7 | 0.00 | 0.00 | 0.00 | 71 | 1014.7 |
| 20260904024016 | 16 | 258 | 3.2 | 9.7 | 0.00 | 0.00 | 0.00 | 71 | 1014.7 |
| 20260904023535 | 16 | 247 | 3.2 | 9.7 | 0.00 | 0.00 | 0.00 | 70 | 1014.6 |
| 20260904023033 | 16 | 246 | 3.2 | 6.4 | 0.00 | 0.00 | 0.00 | 70 | 1014.7 |
| 20260904022531 | 16 | 240 | 3.2 | 6.4 | 0.00 | 0.00 | 0.00 | 70 | 1014.7 |
| 20260904022029 | 16 | 251 | 3.2 | 6.4 | 0.00 | 0.00 | 0.00 | 70 | 1014.6 |
| 20260904021527 | 16 | 260 | 3.2 | 9.7 | 0.00 | 0.00 | 0.00 | 70 | 1014.7 |
| 20260904021025 | 16 | 271 | 3.2 | 12.9 | 0.00 | 0.00 | 0.00 | 70 | 1014.7 |
| 20260904020524 | 16 | 256 | 3.2 | 9.7 | 0.00 | 0.00 | 0.00 | 70 | 1014.7 |
| 20260904020022 | 16 | 263 | 4.8 | 11.3 | 0.00 | 0.00 | 0.00 | 70 | 1014.7 |
| 20260904015520 | 16 | 262 | 3.2 | 9.7 | 0.00 | 0.00 | 0.00 | 70 | 1014.7 |
| 20260904015018 | 16 | 262 | 4.8 | 11.3 | 0.00 | 0.00 | 0.00 | 70 | 1014.8 |
| 20260904014516 | 16 | 251 | 4.8 | 11.3 | 0.00 | 0.00 | 0.00 | 70 | 1014.7 |
| 20260904014034 | 16 | 263 | 4.8 | 14.5 | 0.00 | 0.00 | 0.00 | 70 | 1014.7 |
| 20260904013532 | 16 | 256 | 4.8 | 12.9 | 0.00 | 0.00 | 0.00 | 70 | 1014.8 |
| 20260904013031 | 16 | 271 | 4.8 | 11.3 | 0.00 | 0.00 | 0.00 | 70 | 1014.8 |
| 20260904012528 | 16 | 244 | 3.2 | 11.3 | 0.00 | 0.00 | 0.00 | 70 | 1014.7 |
| 20260904012027 | 16 | 256 | 4.8 | 11.3 | 0.00 | 0.00 | 0.00 | 70 | 1014.8 |
| 20260904011525 | 16 | 246 | 3.2 | 6.4 | 0.00 | 0.00 | 0.00 | 69 | 1014.9 |
| 20260904011023 | 16 | 245 | 3.2 | 9.7 | 0.00 | 0.00 | 0.00 | 69 | 1014.9 |
| 20260904010521 | 16 | 213 | 1.6 | 9.7 | 0.00 | 0.00 | 0.00 | 69 | 1015.0 |
| 20260904010044 | 16 | 241 | 1.6 | 6.4 | 0.00 | 0.00 | 0.00 | 69 | 1015.0 |
| 20260904005525 | 16 | 241 | 1.6 | 6.4 | 0.00 | 0.00 | 0.00 | 69 | 1015.0 |
| 20260904005023 | 17 | 245 | 3.2 | 6.4 | 0.00 | 0.00 | 0.00 | 69 | 1015.0 |
| 20260904004521 | 17 | 220 | 1.6 | 6.4 | 0.00 | 0.00 | 0.00 | 69 | 1015.1 |
| 20260904004019 | 17 | 222 | 1.6 | 6.4 | 0.00 | 0.00 | 0.00 | 69 | 1015.2 |
| 20260904003517 | 17 | 202 | 1.6 | 4.8 | 0.00 | 0.00 | 0.00 | 69 | 1015.2 |
| 20260904003035 | 17 | 211 | 3.2 | 11.3 | 0.00 | 0.00 | 0.00 | 68 | 1015.3 |
| 20260904002533 | 17 | 202 | 1.6 | 4.8 | 0.00 | 0.00 | 0.00 | 68 | 1015.2 |
| 20260904002032 | 17 | 218 | 1.6 | 4.8 | 0.00 | 0.00 | 0.00 | 68 | 1015.4 |
| 20260904001530 | 17 | 236 | 3.2 | 9.7 | 0.00 | 0.00 | 0.00 | 68 | 1015.5 |
| 20260904001028 | 17 | 234 | 3.2 | 9.7 | 0.00 | 0.00 | 0.00 | 68 | 1015.5 |
| 20260904000526 | 17 | 232 | 3.2 | 4.8 | 0.00 | 0.00 | 0.00 | 68 | 1015.4 |
| 20260904000024 | 17 | 205 | 3.2 | 6.4 | 0.00 | 0.00 | 0.00 | 68 | 1015.4 |
| 20260903235522 | 17 | 194 | 3.2 | 6.4 | 0.00 | 0.00 | 0.00 | 68 | 1015.4 |
| 20260903235021 | 17 | 234 | 3.2 | 9.7 | 0.00 | 0.00 | 0.00 | 68 | 1015.4 |
| 20260903234519 | 17 | 215 | 1.6 | 6.4 | 0.00 | 0.00 | 0.00 | 68 | 1015.5 |
| 20260903234048 | 17 | 203 | 3.2 | 4.8 | 0.00 | 0.00 | 0.00 | 68 | 1015.5 |
| 20260903234017 | 17 | 203 | 3.2 | 4.8 | 0.00 | 0.00 | 0.00 | 68 | 1015.5 |
| 20260903233535 | 17 | 207 | 3.2 | 6.4 | 0.00 | 0.00 | 0.00 | 68 | 1015.6 |
| 20260903233034 | 17 | 196 | 1.6 | 4.8 | 0.00 | 0.00 | 0.00 | 68 | 1015.8 |
| 20260903232532 | 17 | 208 | 1.6 | 3.2 | 0.00 | 0.00 | 0.00 | 68 | 1015.8 |
| 20260903232029 | 17 | 205 | 1.6 | 9.7 | 0.00 | 0.00 | 0.00 | 68 | 1015.9 |
| 20260903231528 | 17 | 194 | 1.6 | 3.2 | 0.00 | 0.00 | 0.00 | 68 | 1015.9 |
| 20260903231025 | 17 | 196 | 1.6 | 4.8 | 0.00 | 0.00 | 0.00 | 68 | 1015.9 |
| 20260903230523 | 17 | 202 | 1.6 | 6.4 | 0.00 | 0.00 | 0.00 | 68 | 1015.9 |
| 20260903230022 | 17 | 196 | 1.6 | 4.8 | 0.00 | 0.00 | 0.00 | 68 | 1015.9 |
| 20260903225520 | 17 | 187 | 1.6 | 4.8 | 0.00 | 0.00 | 0.00 | 68 | 1016.1 |
| 20260903225018 | 17 | 182 | 0.0 | 3.2 | 0.00 | 0.00 | 0.00 | 68 | 1016.1 |
| 20260903224516 | 17 | 216 | 0.0 | 1.6 | 0.00 | 0.00 | 0.00 | 68 | 1016.2 |
| 20260903224034 | 17 | 179 | 0.0 | 3.2 | 0.00 | 0.00 | 0.00 | 68 | 1016.2 |
| 20260903223532 | 17 | 188 | 0.0 | 3.2 | 0.00 | 0.00 | 0.00 | 67 | 1016.2 |
| 20260903223030 | 17 | 0.0 | 0.0 | 0.00 | 0.00 | 0.00 | 67 | 1016.2 | |
| 20260903222529 | 17 | 0.0 | 0.0 | 0.00 | 0.00 | 0.00 | 67 | 1016.2 | |
| 20260903222027 | 17 | 0.0 | 0.0 | 0.00 | 0.00 | 0.00 | 67 | 1016.2 | |
| 20260903221525 | 17 | 0.0 | 0.0 | 0.00 | 0.00 | 0.00 | 67 | 1016.2 | |
| 20260903221023 | 17 | 0.0 | 0.0 | 0.00 | 0.00 | 0.00 | 66 | 1016.1 | |
| 20260903220521 | 17 | 0.0 | 0.0 | 0.00 | 0.00 | 0.00 | 66 | 1016.2 | |
| 20260903220022 | 17 | 0.0 | 0.0 | 0.00 | 0.00 | 0.00 | 66 | 1016.3 | |
| 20260903215517 | 17 | 0.0 | 0.0 | 0.00 | 0.00 | 0.00 | 66 | 1016.4 | |
| 20260903215049 | 17 | 247 | 0.0 | 4.8 | 0.00 | 0.00 | 0.00 | 65 | 1016.4 |
| 20260903215015 | 17 | 247 | 0.0 | 4.8 | 0.00 | 0.00 | 0.00 | 65 | 1016.4 |
| 20260903214534 | 17 | 251 | 1.6 | 4.8 | 0.00 | 0.00 | 0.00 | 65 | 1016.4 |
| 20260903214032 | 17 | 241 | 1.6 | 3.2 | 0.00 | 0.00 | 0.00 | 65 | 1016.5 |
| 20260903213530 | 17 | 267 | 0.0 | 4.8 | 0.00 | 0.00 | 0.00 | 65 | 1016.5 |
| 20260903213028 | 17 | 0.0 | 0.0 | 0.00 | 0.00 | 0.00 | 65 | 1016.5 | |
| 20260903212526 | 17 | 237 | 0.0 | 3.2 | 0.00 | 0.00 | 0.00 | 65 | 1016.5 |
| 20260903212025 | 18 | 246 | 0.0 | 3.2 | 0.00 | 0.00 | 0.00 | 65 | 1016.6 |
| 20260903211523 | 18 | 0.0 | 0.0 | 0.00 | 0.00 | 0.00 | 65 | 1016.5 | |
| 20260903211021 | 18 | 226 | 0.0 | 3.2 | 0.00 | 0.00 | 0.00 | 65 | 1016.5 |
| 20260903210519 | 18 | 238 | 1.6 | 4.8 | 0.00 | 0.00 | 0.00 | 65 | 1016.7 |
| 20260903210017 | 18 | 262 | 1.6 | 4.8 | 0.00 | 0.00 | 0.00 | 65 | 1016.7 |
| 20260903205516 | 18 | 0.0 | 0.0 | 0.00 | 0.00 | 0.00 | 65 | 1016.6 | |
| 20260903205034 | 18 | 260 | 1.6 | 3.2 | 0.00 | 0.00 | 0.00 | 65 | 1016.7 |
| 20260903204532 | 18 | 280 | 1.6 | 4.8 | 0.00 | 0.00 | 0.00 | 65 | 1016.7 |
| 20260903204030 | 18 | 249 | 1.6 | 3.2 | 0.00 | 0.00 | 0.00 | 65 | 1016.6 |
| 20260903203528 | 18 | 268 | 3.2 | 6.4 | 0.00 | 0.00 | 0.00 | 65 | 1016.6 |
| 20260903203026 | 18 | 267 | 1.6 | 6.4 | 0.00 | 0.00 | 0.00 | 65 | 1016.7 |
| 20260903202525 | 18 | 274 | 1.6 | 6.4 | 0.00 | 0.00 | 0.00 | 65 | 1016.7 |
| 20260903202022 | 18 | 285 | 3.2 | 6.4 | 0.00 | 0.00 | 0.00 | 65 | 1016.7 |
| 20260903201521 | 18 | 277 | 3.2 | 6.4 | 0.00 | 0.00 | 0.00 | 65 | 1016.6 |
| 20260903201019 | 18 | 276 | 3.2 | 11.3 | 0.00 | 0.00 | 0.00 | 64 | 1016.6 |
| 20260903200517 | 18 | 274 | 3.2 | 11.3 | 0.00 | 0.00 | 0.00 | 64 | 1016.7 |
| 20260903200035 | 18 | 272 | 3.2 | 6.4 | 0.00 | 0.00 | 0.00 | 64 | 1016.6 |
| 20260903195533 | 18 | 258 | 3.2 | 9.7 | 0.00 | 0.00 | 0.00 | 64 | 1016.7 |
| 20260903195032 | 18 | 257 | 4.8 | 6.4 | 0.00 | 0.00 | 0.00 | 64 | 1016.7 |
| 20260903194530 | 18 | 252 | 3.2 | 12.9 | 0.00 | 0.00 | 0.00 | 64 | 1016.7 |
| 20260903194028 | 18 | 244 | 3.2 | 4.8 | 0.00 | 0.00 | 0.00 | 64 | 1016.7 |
| 20260903193526 | 18 | 248 | 3.2 | 4.8 | 0.00 | 0.00 | 0.00 | 64 | 1016.8 |
| 20260903193024 | 18 | 243 | 3.2 | 6.4 | 0.00 | 0.00 | 0.00 | 64 | 1016.8 |
| 20260903192522 | 18 | 247 | 1.6 | 4.8 | 0.00 | 0.00 | 0.00 | 64 | 1016.8 |
| 20260903192020 | 18 | 249 | 3.2 | 6.4 | 0.00 | 0.00 | 0.00 | 64 | 1016.8 |
| 20260903191518 | 18 | 256 | 3.2 | 6.4 | 0.00 | 0.00 | 0.00 | 65 | 1016.9 |
| 20260903191049 | 18 | 245 | 1.6 | 6.4 | 0.00 | 0.00 | 0.00 | 64 | 1017.0 |
| 20260903191016 | 18 | 245 | 1.6 | 6.4 | 0.00 | 0.00 | 0.00 | 64 | 1017.0 |
| 20260903190534 | 18 | 238 | 1.6 | 4.8 | 0.00 | 0.00 | 0.00 | 64 | 1017.0 |
| 20260903190033 | 18 | 249 | 0.0 | 3.2 | 0.00 | 0.00 | 0.00 | 64 | 1017.0 |
| 20260903185531 | 18 | 0.0 | 0.0 | 0.00 | 0.00 | 0.00 | 64 | 1017.0 | |
| 20260903185029 | 18 | 0.0 | 0.0 | 0.00 | 0.00 | 0.00 | 63 | 1016.9 | |
| 20260903184527 | 18 | 246 | 0.0 | 3.2 | 0.00 | 0.00 | 0.00 | 63 | 1017.0 |
| 20260903184025 | 19 | 0.0 | 0.0 | 0.00 | 0.00 | 0.00 | 63 | 1016.9 | |
| 20260903183523 | 19 | 0.0 | 0.0 | 0.00 | 0.00 | 0.00 | 62 | 1017.0 | |
| 20260903183021 | 19 | 0.0 | 0.0 | 0.00 | 0.00 | 0.00 | 62 | 1017.0 | |
| 20260903182519 | 19 | 0.0 | 0.0 | 0.00 | 0.00 | 0.00 | 62 | 1017.0 | |
| 20260903182018 | 19 | 0.0 | 0.0 | 0.00 | 0.00 | 0.00 | 61 | 1017.0 | |
| 20260903181515 | 20 | 0.0 | 0.0 | 0.00 | 0.00 | 0.00 | 61 | 1017.0 | |
| 20260903181034 | 20 | 0.0 | 0.0 | 0.00 | 0.00 | 0.00 | 61 | 1017.0 | |
| 20260903180532 | 20 | 0.0 | 0.0 | 0.00 | 0.00 | 0.00 | 60 | 1017.0 | |
| 20260903180030 | 20 | 0.0 | 0.0 | 0.00 | 0.00 | 0.00 | 60 | 1016.9 | |
| 20260903175528 | 20 | 0.0 | 0.0 | 0.00 | 0.00 | 0.00 | 60 | 1016.9 | |
| 20260903175026 | 20 | 0.0 | 0.0 | 0.00 | 0.00 | 0.00 | 60 | 1016.9 | |
| 20260903174525 | 20 | 0.0 | 0.0 | 0.00 | 0.00 | 0.00 | 59 | 1016.9 | |
| 20260903174022 | 20 | 0.0 | 0.0 | 0.00 | 0.00 | 0.00 | 59 | 1016.9 | |
| 20260903173521 | 20 | 0.0 | 0.0 | 0.00 | 0.00 | 0.00 | 59 | 1016.8 | |
| 20260903173019 | 20 | 0.0 | 0.0 | 0.00 | 0.00 | 0.00 | 59 | 1016.7 | |
| 20260903172517 | 20 | 0.0 | 0.0 | 0.00 | 0.00 | 0.00 | 58 | 1016.7 | |
| 20260903172036 | 21 | 0.0 | 0.0 | 0.00 | 0.00 | 0.00 | 58 | 1016.7 | |
| 20260903171533 | 21 | 0.0 | 0.0 | 0.00 | 0.00 | 0.00 | 57 | 1016.7 | |
| 20260903171032 | 21 | 0.0 | 0.0 | 0.00 | 0.00 | 0.00 | 57 | 1016.7 | |
| 20260903170530 | 21 | 0.0 | 0.0 | 0.00 | 0.00 | 0.00 | 56 | 1016.7 | |
| 20260903170028 | 21 | 282 | 1.6 | 4.8 | 0.00 | 0.00 | 0.00 | 55 | 1016.6 |
| 20260903165526 | 21 | 288 | 3.2 | 9.7 | 0.00 | 0.00 | 0.00 | 55 | 1016.7 |
| 20260903165024 | 21 | 285 | 3.2 | 6.4 | 0.00 | 0.00 | 0.00 | 54 | 1016.7 |
| 20260903164522 | 21 | 279 | 4.8 | 12.9 | 0.00 | 0.00 | 0.00 | 54 | 1016.6 |
| 20260903164020 | 21 | 292 | 6.4 | 11.3 | 0.00 | 0.00 | 0.00 | 54 | 1016.7 |
| 20260903163518 | 21 | 287 | 4.8 | 9.7 | 0.00 | 0.00 | 0.00 | 54 | 1016.6 |
| 20260903163048 | 21 | 280 | 3.2 | 4.8 | 0.00 | 0.00 | 0.00 | 54 | 1016.6 |
| 20260903163016 | 21 | 280 | 3.2 | 4.8 | 0.00 | 0.00 | 0.00 | 54 | 1016.6 |
| 20260903162535 | 21 | 292 | 0.0 | 4.8 | 0.00 | 0.00 | 0.00 | 54 | 1016.6 |
| 20260903162033 | 21 | 0.0 | 0.0 | 0.00 | 0.00 | 0.00 | 53 | 1016.6 | |
| 20260903161531 | 21 | 0.0 | 0.0 | 0.00 | 0.00 | 0.00 | 53 | 1016.6 | |
| 20260903161029 | 21 | 288 | 1.6 | 4.8 | 0.00 | 0.00 | 0.00 | 53 | 1016.7 |
| 20260903160527 | 21 | 312 | 0.0 | 4.8 | 0.00 | 0.00 | 0.00 | 52 | 1016.6 |
| 20260903160026 | 22 | 286 | 4.8 | 11.3 | 0.00 | 0.00 | 0.00 | 52 | 1016.7 |
| 20260903155524 | 22 | 288 | 4.8 | 11.3 | 0.00 | 0.00 | 0.00 | 52 | 1016.7 |
| 20260903155022 | 22 | 291 | 4.8 | 9.7 | 0.00 | 0.00 | 0.00 | 52 | 1016.7 |
| 20260903154520 | 22 | 297 | 4.8 | 9.7 | 0.00 | 0.00 | 0.00 | 51 | 1016.8 |
| 20260903154018 | 22 | 298 | 6.4 | 12.9 | 0.00 | 0.00 | 0.00 | 51 | 1016.8 |
| 20260903153516 | 22 | 291 | 6.4 | 14.5 | 0.00 | 0.00 | 0.00 | 50 | 1016.8 |
| 20260903153034 | 22 | 280 | 6.4 | 12.9 | 0.00 | 0.00 | 0.00 | 51 | 1016.8 |
| 20260903152532 | 22 | 286 | 4.8 | 12.9 | 0.00 | 0.00 | 0.00 | 51 | 1016.9 |
| 20260903152031 | 22 | 287 | 6.4 | 14.5 | 0.00 | 0.00 | 0.00 | 51 | 1017.0 |
| 20260903151529 | 22 | 288 | 4.8 | 9.7 | 0.00 | 0.00 | 0.00 | 51 | 1017.0 |
| 20260903151027 | 22 | 287 | 4.8 | 12.9 | 0.00 | 0.00 | 0.00 | 50 | 1016.9 |
| 20260903150525 | 22 | 304 | 3.2 | 11.3 | 0.00 | 0.00 | 0.00 | 50 | 1017.1 |
| 20260903150023 | 22 | 294 | 3.2 | 12.9 | 0.00 | 0.00 | 0.00 | 51 | 1017.1 |
| 20260903145522 | 22 | 291 | 3.2 | 6.4 | 0.00 | 0.00 | 0.00 | 50 | 1017.2 |
| 20260903145020 | 22 | 307 | 6.4 | 12.9 | 0.00 | 0.00 | 0.00 | 50 | 1017.2 |
| 20260903144518 | 22 | 308 | 4.8 | 9.7 | 0.00 | 0.00 | 0.00 | 50 | 1017.2 |
| 20260903144016 | 22 | 300 | 3.2 | 9.7 | 0.00 | 0.00 | 0.00 | 50 | 1017.2 |
| 20260903143534 | 22 | 326 | 3.2 | 12.9 | 0.00 | 0.00 | 0.00 | 49 | 1017.2 |
| 20260903143033 | 22 | 307 | 6.4 | 14.5 | 0.00 | 0.00 | 0.00 | 48 | 1017.2 |
| 20260903142530 | 22 | 291 | 6.4 | 12.9 | 0.00 | 0.00 | 0.00 | 49 | 1017.2 |
| 20260903142028 | 22 | 279 | 6.4 | 16.1 | 0.00 | 0.00 | 0.00 | 49 | 1017.3 |
| 20260903141527 | 22 | 276 | 6.4 | 14.5 | 0.00 | 0.00 | 0.00 | 50 | 1017.3 |
| 20260903141024 | 22 | 291 | 3.2 | 9.7 | 0.00 | 0.00 | 0.00 | 51 | 1017.4 |
| 20260903140523 | 22 | 306 | 6.4 | 12.9 | 0.00 | 0.00 | 0.00 | 50 | 1017.3 |
| 20260903140021 | 22 | 286 | 6.4 | 11.3 | 0.00 | 0.00 | 0.00 | 50 | 1017.4 |
| 20260903135519 | 22 | 287 | 8.0 | 16.1 | 0.00 | 0.00 | 0.00 | 50 | 1017.5 |
| 20260903135049 | 22 | 314 | 6.4 | 12.9 | 0.00 | 0.00 | 0.00 | 50 | 1017.4 |
| 20260903135017 | 22 | 314 | 6.4 | 12.9 | 0.00 | 0.00 | 0.00 | 50 | 1017.4 |
| 20260903134535 | 22 | 282 | 4.8 | 12.9 | 0.00 | 0.00 | 0.00 | 51 | 1017.4 |
| 20260903134033 | 22 | 297 | 4.8 | 12.9 | 0.00 | 0.00 | 0.00 | 51 | 1017.4 |
| 20260903133531 | 22 | 332 | 0.0 | 9.7 | 0.00 | 0.00 | 0.00 | 51 | 1017.4 |
| 20260903133030 | 22 | 281 | 4.8 | 11.3 | 0.00 | 0.00 | 0.00 | 50 | 1017.5 |
| 20260903132527 | 22 | 294 | 6.4 | 17.7 | 0.00 | 0.00 | 0.00 | 49 | 1017.5 |
| 20260903132025 | 22 | 275 | 6.4 | 12.9 | 0.00 | 0.00 | 0.00 | 50 | 1017.6 |
| 20260903131524 | 22 | 280 | 6.4 | 17.7 | 0.00 | 0.00 | 0.00 | 49 | 1017.6 |
| 20260903131022 | 22 | 273 | 9.7 | 14.5 | 0.00 | 0.00 | 0.00 | 49 | 1017.7 |
| 20260903130520 | 22 | 291 | 6.4 | 20.9 | 0.00 | 0.00 | 0.00 | 49 | 1017.6 |
| 20260903130018 | 22 | 289 | 11.3 | 22.5 | 0.00 | 0.00 | 0.00 | 49 | 1017.7 |
| 20260903125517 | 22 | 281 | 8.0 | 22.5 | 0.00 | 0.00 | 0.00 | 51 | 1017.8 |
| 20260903125035 | 22 | 292 | 4.8 | 16.1 | 0.00 | 0.00 | 0.00 | 52 | 1017.7 |
| 20260903124533 | 22 | 324 | 6.4 | 12.9 | 0.00 | 0.00 | 0.00 | 51 | 1017.9 |
| 20260903124031 | 22 | 285 | 6.4 | 17.7 | 0.00 | 0.00 | 0.00 | 53 | 1017.9 |
| 20260903123529 | 22 | 298 | 6.4 | 14.5 | 0.00 | 0.00 | 0.00 | 53 | 1017.9 |
| 20260903123027 | 21 | 283 | 6.4 | 12.9 | 0.00 | 0.00 | 0.00 | 53 | 1018.0 |
| 20260903122525 | 21 | 298 | 6.4 | 12.9 | 0.00 | 0.00 | 0.00 | 52 | 1018.0 |
| 20260903122023 | 22 | 289 | 4.8 | 11.3 | 0.00 | 0.00 | 0.00 | 52 | 1018.0 |
| 20260903121521 | 22 | 318 | 1.6 | 11.3 | 0.00 | 0.00 | 0.00 | 54 | 1018.0 |
| 20260903121019 | 21 | 294 | 3.2 | 9.7 | 0.00 | 0.00 | 0.00 | 54 | 1018.1 |
| 20260903120518 | 22 | 286 | 4.8 | 16.1 | 0.00 | 0.00 | 0.00 | 54 | 1018.1 |
| 20260903120049 | 22 | 290 | 6.4 | 11.3 | 0.00 | 0.00 | 0.00 | 53 | 1018.1 |
| 20260903120016 | 22 | 290 | 6.4 | 11.3 | 0.00 | 0.00 | 0.00 | 53 | 1018.1 |
| 20260903115534 | 22 | 297 | 6.4 | 14.5 | 0.00 | 0.00 | 0.00 | 53 | 1018.2 |
| 20260903115032 | 22 | 323 | 6.4 | 12.9 | 0.00 | 0.00 | 0.00 | 52 | 1018.2 |
| 20260903114530 | 22 | 284 | 6.4 | 14.5 | 0.00 | 0.00 | 0.00 | 52 | 1018.2 |
| 20260903114028 | 22 | 307 | 6.4 | 20.9 | 0.00 | 0.00 | 0.00 | 52 | 1018.3 |
| 20260903113526 | 22 | 285 | 6.4 | 12.9 | 0.00 | 0.00 | 0.00 | 51 | 1018.4 |
| 20260903113024 | 22 | 312 | 8.0 | 14.5 | 0.00 | 0.00 | 0.00 | 51 | 1018.4 |
| 20260903112522 | 22 | 315 | 6.4 | 12.9 | 0.00 | 0.00 | 0.00 | 51 | 1018.4 |
| 20260903112020 | 22 | 267 | 6.4 | 16.1 | 0.00 | 0.00 | 0.00 | 52 | 1018.4 |
| 20260903111518 | 22 | 283 | 3.2 | 14.5 | 0.00 | 0.00 | 0.00 | 52 | 1018.5 |
| 20260903111016 | 22 | 287 | 8.0 | 20.9 | 0.00 | 0.00 | 0.00 | 52 | 1018.5 |
| 20260903110535 | 22 | 289 | 4.8 | 14.5 | 0.00 | 0.00 | 0.00 | 52 | 1018.5 |
| 20260903110033 | 22 | 275 | 6.4 | 16.1 | 0.00 | 0.00 | 0.00 | 52 | 1018.6 |
| 20260903105531 | 22 | 281 | 4.8 | 16.1 | 0.00 | 0.00 | 0.00 | 53 | 1018.7 |
| 20260903105029 | 22 | 283 | 9.7 | 16.1 | 0.00 | 0.00 | 0.00 | 53 | 1018.7 |
| 20260903104528 | 22 | 289 | 6.4 | 17.7 | 0.00 | 0.00 | 0.00 | 53 | 1018.9 |
| 20260903104026 | 22 | 0 | 4.8 | 14.5 | 0.00 | 0.00 | 0.00 | 53 | 1018.9 |
| 20260903103523 | 21 | 2 | 6.4 | 17.7 | 0.00 | 0.00 | 0.00 | 54 | 1019.0 |
| 20260903103022 | 22 | 316 | 9.7 | 20.9 | 0.00 | 0.00 | 0.00 | 52 | 1019.1 |
| 20260903102520 | 22 | 334 | 8.0 | 17.7 | 0.00 | 0.00 | 0.00 | 53 | 1019.0 |
| 20260903102018 | 21 | 297 | 8.0 | 16.1 | 0.00 | 0.00 | 0.00 | 54 | 1019.1 |
| 20260903101516 | 21 | 305 | 4.8 | 12.9 | 0.00 | 0.00 | 0.00 | 55 | 1019.1 |
| 20260903101034 | 21 | 302 | 4.8 | 9.7 | 0.00 | 0.00 | 0.00 | 56 | 1019.1 |
| 20260903100533 | 21 | 264 | 6.4 | 17.7 | 0.00 | 0.00 | 0.00 | 56 | 1019.1 |
| 20260903100031 | 21 | 280 | 8.0 | 17.7 | 0.00 | 0.00 | 0.00 | 55 | 1019.1 |
| 20260903095529 | 21 | 270 | 8.0 | 16.1 | 0.00 | 0.00 | 0.00 | 57 | 1019.2 |
| 20260903095027 | 21 | 297 | 6.4 | 16.1 | 0.00 | 0.00 | 0.00 | 58 | 1019.3 |
| 20260903094525 | 21 | 302 | 4.8 | 12.9 | 0.00 | 0.00 | 0.00 | 59 | 1019.3 |
| 20260903094023 | 21 | 304 | 4.8 | 12.9 | 0.00 | 0.00 | 0.00 | 58 | 1019.4 |
| 20260903093522 | 21 | 279 | 4.8 | 11.3 | 0.00 | 0.00 | 0.00 | 58 | 1019.4 |
| 20260903093020 | 21 | 281 | 6.4 | 14.5 | 0.00 | 0.00 | 0.00 | 59 | 1019.5 |
| 20260903092520 | 20 | 280 | 6.4 | 16.1 | 0.00 | 0.00 | 0.00 | 61 | 1019.4 |
| 20260903092048 | 20 | 297 | 4.8 | 6.4 | 0.00 | 0.00 | 0.00 | 59 | 1019.5 |
| 20260903092016 | 20 | 297 | 4.8 | 6.4 | 0.00 | 0.00 | 0.00 | 59 | 1019.5 |
| 20260903091535 | 20 | 288 | 8.0 | 22.5 | 0.00 | 0.00 | 0.00 | 60 | 1019.6 |
| 20260903091033 | 20 | 310 | 4.8 | 11.3 | 0.00 | 0.00 | 0.00 | 60 | 1019.5 |
| 20260903090531 | 20 | 283 | 4.8 | 11.3 | 0.00 | 0.00 | 0.00 | 61 | 1019.5 |
| 20260903090029 | 20 | 296 | 3.2 | 9.7 | 0.00 | 0.00 | 0.00 | 62 | 1019.5 |
| 20260903085528 | 20 | 308 | 4.8 | 12.9 | 0.00 | 0.00 | 0.00 | 63 | 1019.6 |
| 20260903085025 | 20 | 285 | 4.8 | 12.9 | 0.00 | 0.00 | 0.00 | 64 | 1019.6 |
| 20260903084523 | 19 | 313 | 4.8 | 14.5 | 0.00 | 0.00 | 0.00 | 63 | 1019.6 |
| 20260903084022 | 19 | 286 | 3.2 | 11.3 | 0.00 | 0.00 | 0.00 | 65 | 1019.7 |
| 20260903083520 | 19 | 289 | 4.8 | 9.7 | 0.00 | 0.00 | 0.00 | 65 | 1019.6 |
| 20260903083019 | 19 | 289 | 4.8 | 14.5 | 0.00 | 0.00 | 0.00 | 64 | 1019.7 |
| 20260903082516 | 18 | 289 | 6.4 | 16.1 | 0.00 | 0.00 | 0.00 | 67 | 1019.7 |
| 20260903082035 | 18 | 323 | 1.6 | 9.7 | 0.00 | 0.00 | 0.00 | 67 | 1019.6 |
| 20260903081532 | 18 | 341 | 6.4 | 14.5 | 0.00 | 0.00 | 0.00 | 67 | 1019.6 |
| 20260903081031 | 18 | 310 | 3.2 | 9.7 | 0.00 | 0.00 | 0.00 | 68 | 1019.6 |
| 20260903080529 | 18 | 301 | 8.0 | 14.5 | 0.00 | 0.00 | 0.00 | 68 | 1019.6 |
| 20260903080027 | 18 | 296 | 6.4 | 11.3 | 0.00 | 0.00 | 0.00 | 69 | 1019.6 |
| 20260903075525 | 18 | 279 | 8.0 | 14.5 | 0.00 | 0.00 | 0.00 | 71 | 1019.6 |
| 20260903075023 | 17 | 279 | 6.4 | 12.9 | 0.00 | 0.00 | 0.00 | 72 | 1019.5 |
| 20260903074522 | 17 | 284 | 4.8 | 11.3 | 0.00 | 0.00 | 0.00 | 71 | 1019.5 |
| 20260903074020 | 17 | 295 | 4.8 | 11.3 | 0.00 | 0.00 | 0.00 | 73 | 1019.4 |
| 20260903073518 | 17 | 281 | 6.4 | 12.9 | 0.00 | 0.00 | 0.00 | 73 | 1019.4 |
| 20260903073048 | 17 | 284 | 6.4 | 12.9 | 0.00 | 0.00 | 0.00 | 73 | 1019.5 |
| 20260903073016 | 17 | 284 | 6.4 | 12.9 | 0.00 | 0.00 | 0.00 | 73 | 1019.5 |
| 20260903072535 | 17 | 280 | 3.2 | 11.3 | 0.00 | 0.00 | 0.00 | 74 | 1019.5 |
| 20260903072033 | 17 | 299 | 6.4 | 11.3 | 0.00 | 0.00 | 0.00 | 74 | 1019.6 |
| 20260903071531 | 16 | 299 | 8.0 | 16.1 | 0.00 | 0.00 | 0.00 | 75 | 1019.5 |
| 20260903071029 | 16 | 297 | 4.8 | 11.3 | 0.00 | 0.00 | 0.00 | 76 | 1019.5 |
| 20260903070527 | 16 | 283 | 4.8 | 11.3 | 0.00 | 0.00 | 0.00 | 77 | 1019.5 |
| 20260903070025 | 16 | 295 | 4.8 | 12.9 | 0.00 | 0.00 | 0.00 | 78 | 1019.4 |
| 20260903065523 | 16 | 270 | 4.8 | 12.9 | 0.00 | 0.00 | 0.00 | 79 | 1019.4 |
| 20260903065022 | 16 | 281 | 6.4 | 12.9 | 0.00 | 0.00 | 0.00 | 80 | 1019.5 |
| 20260903064520 | 16 | 290 | 4.8 | 14.5 | 0.00 | 0.00 | 0.00 | 80 | 1019.5 |
| 20260903064049 | 15 | 300 | 1.6 | 9.7 | 0.00 | 0.00 | 0.00 | 81 | 1019.5 |
| 20260903064018 | 15 | 300 | 1.6 | 9.7 | 0.00 | 0.00 | 0.00 | 81 | 1019.5 |
| 20260903063516 | 15 | 274 | 1.6 | 6.4 | 0.00 | 0.00 | 0.00 | 82 | 1019.5 |
| 20260903063034 | 15 | 293 | 1.6 | 6.4 | 0.00 | 0.00 | 0.00 | 82 | 1019.4 |
| 20260903062533 | 15 | 287 | 4.8 | 11.3 | 0.00 | 0.00 | 0.00 | 82 | 1019.5 |
| 20260903062030 | 15 | 280 | 4.8 | 11.3 | 0.00 | 0.00 | 0.00 | 83 | 1019.4 |
| 20260903061529 | 15 | 290 | 6.4 | 14.5 | 0.00 | 0.00 | 0.00 | 83 | 1019.5 |
| 20260903061027 | 15 | 278 | 4.8 | 11.3 | 0.00 | 0.00 | 0.00 | 84 | 1019.5 |
| 20260903060526 | 14 | 283 | 4.8 | 12.9 | 0.00 | 0.00 | 0.00 | 84 | 1019.5 |
| 20260903060023 | 14 | 280 | 4.8 | 12.9 | 0.00 | 0.00 | 0.00 | 84 | 1019.4 |
| 20260903055521 | 14 | 279 | 4.8 | 11.3 | 0.00 | 0.00 | 0.00 | 84 | 1019.4 |
| 20260903055020 | 13 | 282 | 4.8 | 9.7 | 0.00 | 0.00 | 0.00 | 84 | 1019.3 |
| 20260903054518 | 13 | 278 | 3.2 | 9.7 | 0.00 | 0.00 | 0.00 | 84 | 1019.3 |
| 20260903054048 | 13 | 281 | 3.2 | 6.4 | 0.00 | 0.00 | 0.00 | 84 | 1019.4 |
| 20260903054015 | 13 | 281 | 3.2 | 6.4 | 0.00 | 0.00 | 0.00 | 84 | 1019.4 |
| 20260903053534 | 13 | 272 | 4.8 | 9.7 | 0.00 | 0.00 | 0.00 | 84 | 1019.4 |
| 20260903053032 | 13 | 291 | 3.2 | 9.7 | 0.00 | 0.00 | 0.00 | 84 | 1019.4 |
| 20260903052530 | 13 | 291 | 3.2 | 9.7 | 0.00 | 0.00 | 0.00 | 84 | 1019.4 |
| 20260903052028 | 13 | 287 | 3.2 | 4.8 | 0.00 | 0.00 | 0.00 | 84 | 1019.4 |
| 20260903051526 | 13 | 284 | 4.8 | 11.3 | 0.00 | 0.00 | 0.00 | 84 | 1019.3 |
| 20260903051025 | 12 | 286 | 3.2 | 9.7 | 0.00 | 0.00 | 0.00 | 84 | 1019.3 |
| 20260903050523 | 12 | 278 | 3.2 | 6.4 | 0.00 | 0.00 | 0.00 | 84 | 1019.3 |
| 20260903050021 | 12 | 283 | 1.6 | 6.4 | 0.00 | 0.00 | 0.00 | 83 | 1019.4 |
| 20260903045520 | 12 | 286 | 1.6 | 4.8 | 0.00 | 0.00 | 0.00 | 83 | 1019.4 |
| 20260903045049 | 12 | 271 | 1.6 | 6.4 | 0.00 | 0.00 | 0.00 | 82 | 1019.4 |
| 20260903045017 | 12 | 271 | 1.6 | 6.4 | 0.00 | 0.00 | 0.00 | 82 | 1019.4 |
| 20260903044535 | 12 | 0.0 | 0.0 | 0.00 | 0.00 | 0.00 | 82 | 1019.3 | |
| 20260903044034 | 12 | 0.0 | 0.0 | 0.00 | 0.00 | 0.00 | 82 | 1019.4 | |
| 20260903043532 | 12 | 0.0 | 0.0 | 0.00 | 0.00 | 0.00 | 82 | 1019.4 | |
| 20260903043030 | 12 | 0.0 | 0.0 | 0.00 | 0.00 | 0.00 | 82 | 1019.3 | |
| 20260903042528 | 12 | 0.0 | 0.0 | 0.00 | 0.00 | 0.00 | 82 | 1019.4 | |
| 20260903042026 | 12 | 0.0 | 0.0 | 0.00 | 0.00 | 0.00 | 81 | 1019.3 | |
| 20260903041525 | 12 | 0.0 | 0.0 | 0.00 | 0.00 | 0.00 | 81 | 1019.3 | |
| 20260903041022 | 12 | 0.0 | 0.0 | 0.00 | 0.00 | 0.00 | 81 | 1019.3 |